"2010-04-06 00:00:00",460,8.25,45.67,4.809,0.953,12.62,104.7039,11.31,12.48,26,0,110.3,13.33,12.11,7.7
"2010-04-06 00:00:30",461,10.09,50.64,6.903,1.314,14.52,104.7039,11.31,12.42,25.89,0,110.3,13.33,12.11,12.6
"2010-04-06 00:01:00",462,10.57,54.85,6.578,1.077,15.32,104.7039,11.31,12.65,26.05,0,110.4,13.33,12.11,16.8
"2010-04-06 00:01:30",463,10.17,55.18,7.141,1.094,14.75,104.7039,11.31,12.6,25.93,0,110.3,13.33,12.11,17.2
"2010-04-06 00:02:00",464,8.62,46.54,5.928,0.99,11.48,104.7048,11.32,12.38,25.47,0,110.3,13.33,12.11,8.5
"2010-04-06 00:02:30",465,8.17,43.1,0.596,0.153,10.62,104.7078,11.32,12.34,25.66,0,110.3,13.36,12.12,5.1
"2010-04-06 00:03:00",466,9.24,46.49,7.053,1.202,11.99,104.72,11.36,12.36,25.75,0,110.3,13.33,12.15,8.5
"2010-04-06 00:03:30",467,9.06,46.79,4.358,1.03,11.7,104.7299,11.38,12.44,25.78,0,110.3,13.33,12.17,8.8
"2010-04-06 00:04:00",468,10.35,54.61,5.994,1.245,15.22,104.735,11.39,12.55,25.8,0,110.3,13.34,12.19,16.6
"2010-04-06 00:04:30",469,10.77,53.82,6.229,1.048,15.23,104.7377,11.4,12.65,25.55,0,110.3,13.34,12.19,15.8
"2010-04-06 00:05:00",470,10.86,53.65,7.319,1.2,15.47,104.7383,11.4,12.62,25.58,0,110.3,13.33,12.19,15.7
"2010-04-06 00:05:30",471,8.94,45.96,6.419,1.139,12.14,104.7389,11.4,12.44,25.63,0,110.3,13.33,12.20,8.0
"2010-04-06 00:06:00",472,8.76,43.84,1.026,0.25,10.9,104.7389,11.4,12.37,25.32,0,110.3,13.37,12.20,5.8
"2010-04-06 00:06:30",473,8.87,45.4,4.904,1.053,11.71,104.7407,11.41,12.39,25.36,0,110.3,13.33,12.20,7.4
"2010-04-06 00:07:00",474,8.67,46.38,6.036,1.062,12.61,104.7389,11.4,12.56,25.65,0,110.3,13.34,12.20,8.4
"2010-04-06 00:07:30",475,11.08,55.9,5.927,1.004,15.43,104.7398,11.41,12.6,25.02,0,110.3,13.34,12.20,17.9
"2010-04-06 00:08:00",476,11.32,58.04,3.648,0.71,16.24,104.7392,11.4,12.7,25.02,0,110.3,13.33,12.20,20.0
"2010-04-06 00:08:30",477,10.92,58.1,4.839,1.118,15.53,104.7416,11.41,12.72,24.93,0,110.3,13.33,12.20,20.1
"2010-04-06 00:09:00",478,10.07,51.65,5.173,1.34,12.67,104.7419,11.41,12.42,24.51,0,110.3,13.33,12.20,13.7
"2010-04-06 00:09:30",479,9.27,48.1,0.426,0.081,11.24,104.7442,11.42,12.39,24.49,0,110.3,13.36,12.21,10.1
"2010-04-06 00:10:00",480,9.75,51.15,5.882,0.959,12.75,104.7442,11.42,12.55,24.51,0,110.3,13.33,12.21,13.2
"2010-04-06 00:10:30",481,10.12,52.3,6.466,1.158,13.2,104.7442,11.42,12.42,24.46,0,110.3,13.33,12.21,14.3
"2010-04-06 00:11:00",482,11.56,60.48,5.172,0.997,16.38,104.7475,11.43,12.72,24.77,0,110.3,13.33,12.22,22.5
"2010-04-06 00:11:30",483,11.29,59.92,5.349,0.976,15.89,104.7481,11.43,12.72,24.83,0,110.3,13.33,12.22,21.9
"2010-04-06 00:12:00",484,10.97,57.36,6.214,1.124,14.85,104.7507,11.43,12.61,24.9,0,110.3,13.33,12.23,19.4
"2010-04-06 00:12:30",485,9.13,47.59,0.849,0.091,11.32,104.749,11.43,12.44,24.61,0,110.3,13.36,12.22,9.6
"2010-04-06 00:13:00",486,8.93,47.08,0.654,0.152,11.36,104.7504,11.43,12.43,24.61,0,110.3,13.36,12.23,9.1
"2010-04-06 00:13:30",487,9.5,49.86,5.174,0.985,12.62,104.754,11.44,12.58,24.72,0,110.3,13.33,12.23,11.9
"2010-04-06 00:14:00",488,10.87,56.53,6.329,1.235,15.2,104.7552,11.45,12.55,24.63,0,110.3,13.33,12.24,18.5
"2010-04-06 00:14:30",489,10.97,57.99,6.269,1.091,15.67,104.7587,11.45,12.69,24.82,0,110.3,13.34,12.25,20.0
"2010-04-06 00:15:00",490,11.08,59.05,4.798,1.003,15.7,104.7602,11.46,12.69,24.87,0,110.3,13.34,12.25,21.0
"2010-04-06 00:15:30",491,9.85,52.78,6.533,1.276,13.29,104.7605,11.46,12.51,24.59,0,110.3,13.33,12.25,14.8
"2010-04-06 00:16:00",492,9.05,50.72,4.626,0.695,12.34,104.7625,11.46,12.58,24.62,0,110.3,13.34,12.26,12.7
"2010-04-06 00:16:30",493,8.83,48.55,0.716,0.048,11.47,104.7682,11.48,12.43,24.41,0,110.3,13.37,12.27,10.5
"2010-04-06 00:17:00",494,9.67,51.28,5.893,1.18,12.84,104.7847,11.52,12.44,24.37,0,110.3,13.34,12.31,13.3
"2010-04-06 00:17:30",495,10.56,56.16,6.623,1.212,15.51,104.7912,11.54,12.68,24.61,0,110.3,13.34,12.33,18.2
"2010-04-06 00:18:00",496,11.47,57.99,4.52,0.636,16.61,104.7961,11.55,12.73,24.7,0,110.3,13.34,12.34,20.0
"2010-04-06 00:18:30",497,10.28,53.32,6.91,1.183,14.39,104.7993,11.56,12.7,24.77,0,110.3,13.34,12.35,15.3
"2010-04-06 00:19:00",498,9.33,50.31,6.935,1.232,13.12,104.8012,11.56,12.69,24.89,0,110.3,13.34,12.36,12.3
"2010-04-06 00:19:30",499,9.32,50.22,5.172,1.205,12.19,104.8022,11.57,12.47,24.38,0,110.3,13.34,12.36,12.2
"2010-04-06 00:20:00",500,8.68,46.3,0.814,0.113,11.53,104.8047,11.57,12.47,24.39,0,110.3,13.37,12.37,8.3
"2010-04-06 00:20:30",501,9.88,52.09,6.447,1.192,13.97,104.8053,11.57,12.58,24.42,0,110.3,13.34,12.37,14.1
"2010-04-06 00:21:00",502,10.45,55.05,6.749,1.326,15.06,104.8067,11.58,12.71,24.54,0,110.3,13.34,12.37,17.0
"2010-04-06 00:21:30",503,10.29,56.08,6.618,1.248,14.41,104.8053,11.57,12.68,24.51,0,110.3,13.34,12.37,18.1
"2010-04-06 00:22:00",504,10.21,54.03,6.331,1.341,14.02,104.807,11.58,12.68,24.49,0,110.3,13.34,12.37,16.0
"2010-04-06 00:22:30",505,9.79,50.95,6.737,1.237,13.75,104.807,11.58,12.7,24.44,0,110.3,13.34,12.37,13.0
"2010-04-06 00:23:00",506,9.27,46.79,2.62,0.502,11.47,104.807,11.58,12.49,24.18,0,110.3,13.34,12.37,8.8
"2010-04-06 00:23:30",507,8.93,46.94,0.612,0.071,11.72,104.8067,11.58,12.51,24.18,0,110.3,13.38,12.37,8.9
"2010-04-06 00:24:00",508,9.96,54.44,6.684,1.245,14.88,104.807,11.58,12.78,24.46,0,110.3,13.34,12.37,16.4
"2010-04-06 00:24:30",509,9.61,51.43,6.712,1.342,14.86,104.807,11.58,12.77,24.53,0,110.3,13.34,12.37,13.4
"2010-04-06 00:25:00",510,8.49,46.72,6.666,1.313,14.21,104.807,11.58,12.77,24.62,0,110.3,13.34,12.37,8.7
"2010-04-06 00:25:30",511,9.2,46.9,6.725,1.304,14.52,104.807,11.58,12.75,24.7,0,110.2,13.34,12.37,8.9
"2010-04-06 00:26:00",512,8.48,43.16,6.42,1.256,13.35,104.807,11.58,12.69,24.93,0,110.3,13.33,12.37,5.2
"2010-04-06 00:26:30",513,7.217,37.49,1.232,0.2,11.16,104.807,11.58,12.53,24.85,0,110.3,13.36,12.37,359.5
"2010-04-06 00:27:00",514,7.906,44.55,7.152,1.213,13.28,104.807,11.58,12.7,25.04,0,110.2,13.34,12.37,6.5
"2010-04-06 00:27:30",515,7.724,47.2,5.769,1.202,12.68,104.807,11.58,12.67,24.94,0,110.2,13.33,12.37,9.2
"2010-04-06 00:28:00",516,8.63,52.53,6.446,1.234,14.83,104.807,11.58,12.7,24.58,0,110.3,13.34,12.37,14.5
"2010-04-06 00:28:30",517,8.32,53.9,6.325,1.332,14.99,104.807,11.58,12.8,24.61,0,110.2,13.34,12.37,15.9
"2010-04-06 00:29:00",518,8.33,52.49,6.898,1.183,14.09,104.807,11.58,12.66,24.52,0,110.3,13.33,12.37,14.5
"2010-04-06 00:29:30",519,7.266,48.25,5.034,0.977,12.52,104.8065,11.58,12.68,24.57,0,110.2,13.33,12.37,10.2
"2010-04-06 00:30:00",520,7.789,51.58,5.997,1.077,12.42,104.8008,11.56,12.52,24.34,0,110.3,13.34,12.36,13.6
"2010-04-06 00:30:30",521,8.39,56.33,7.212,1.281,13.63,104.7977,11.55,12.64,24.35,0,110.3,13.34,12.35,18.3
"2010-04-06 00:31:00",522,7.914,55.84,6.612,1.142,13.58,104.7969,11.55,12.67,24.3,0,110.2,13.34,12.35,17.8
"2010-04-06 00:31:30",523,8.79,56.71,6.544,1.359,14.38,104.7983,11.56,12.6,24.2,0,110.3,13.34,12.35,18.7
"2010-04-06 00:32:00",524,8.25,54.66,5.726,1.143,13.5,104.8028,11.57,12.64,24.29,0,110.3,13.34,12.36,16.7
"2010-04-06 00:32:30",525,8.7,54.43,6.996,1.29,14.09,104.807,11.58,12.64,24.24,0,110.3,13.34,12.37,16.4
"2010-04-06 00:33:00",526,9.38,58.74,6.294,1.146,15.22,104.807,11.58,12.71,24.29,0,110.2,13.34,12.37,20.7
"2010-04-06 00:33:30",527,7.442,51.15,3.834,0.693,11.84,104.807,11.58,12.63,24.21,0,110.2,13.34,12.37,13.2
"2010-04-06 00:34:00",528,8.56,54.69,6.784,1.33,13.57,104.807,11.58,12.67,24.2,0,110.2,13.34,12.37,16.7
"2010-04-06 00:34:30",529,8.73,55.28,6.691,1.279,13.76,104.807,11.58,12.67,24.17,0,110.2,13.34,12.37,17.3
"2010-04-06 00:35:00",530,7.416,50.25,0.901,0.173,11.98,104.8127,11.59,12.64,24.13,0,110.2,13.38,12.39,12.2
"2010-04-06 00:35:30",531,8.49,59.43,7.371,1.304,14.13,104.8307,11.64,12.61,24.09,0,110.2,13.34,12.43,21.4
"2010-04-06 00:36:00",532,8.97,59.98,5.714,1.302,15.1,104.84,11.66,12.77,24.23,0,110.2,13.34,12.46,22.0
"2010-04-06 00:36:30",533,8.74,58.52,6.947,1.267,14.52,104.8409,11.67,12.77,24.27,0,110.2,13.35,12.46,20.5
"2010-04-06 00:37:00",534,8.48,60.33,7.126,1.365,14.53,104.8409,11.67,12.73,24.18,0,110.2,13.34,12.46,22.3
"2010-04-06 00:37:30",535,7.653,55.32,6.537,1.051,12.9,104.8409,11.67,12.77,24.17,0,110.2,13.34,12.46,17.3
"2010-04-06 00:38:00",536,8.26,55.64,5.093,1.256,13.12,104.8409,11.67,12.65,24.05,0,110.2,13.34,12.46,17.6
"2010-04-06 00:38:30",537,7.578,49.72,0.398,0.193,11.63,104.8409,11.67,12.6,23.87,0,110.2,13.38,12.46,11.7
"2010-04-06 00:39:00",538,8.54,52.82,5.58,1.068,13.41,104.8409,11.67,12.78,24.01,0,110.2,13.35,12.46,14.8
"2010-04-06 00:39:30",539,9.61,56.32,7.047,1.279,14.38,104.844,11.67,12.73,23.94,0,110.2,13.35,12.47,18.3
"2010-04-06 00:40:00",540,10.01,59.65,6.359,1.116,15.39,104.8567,11.71,12.88,24.06,0,110.2,13.35,12.50,21.7
"2010-04-06 00:40:30",541,10.1,60.94,5.092,1.207,15.76,104.866,11.73,12.93,24.07,0,110.2,13.35,12.52,22.9
"2010-04-06 00:41:00",542,8.87,52.82,6.494,1.284,13.11,104.8719,11.74,12.85,23.97,0,110.2,13.35,12.54,14.8
"2010-04-06 00:41:30",543,9.08,54.58,6.814,1.361,13.22,104.8745,11.75,12.71,23.84,0,110.2,13.34,12.54,16.6
"2010-04-06 00:42:00",544,8.12,50.42,0.6,0.176,11.58,104.8747,11.75,12.67,23.8,0,110.2,13.38,12.54,12.4
"2010-04-06 00:42:30",545,9.01,55.83,6.216,1.373,13.92,104.8747,11.75,12.72,23.81,0,110.2,13.34,12.54,17.8
"2010-04-06 00:43:00",546,8.49,50.61,5.53,1.107,13.36,104.8747,11.75,12.87,23.95,0,110.2,13.34,12.54,12.6
"2010-04-06 00:43:30",547,8.95,52.82,6.969,1.372,14.81,104.8747,11.75,12.94,24.03,0,110.2,13.34,12.54,14.8
"2010-04-06 00:44:00",548,10.07,58.7,3.918,0.728,16.29,104.8747,11.75,13,24.07,0,110.2,13.34,12.54,20.7
"2010-04-06 00:44:30",549,8.54,52.35,6.531,1.333,13.78,104.8747,11.75,12.87,23.88,0,110.2,13.34,12.54,14.3
"2010-04-06 00:45:00",550,7.261,45.11,0.916,0.081,11.35,104.8747,11.75,12.7,23.74,0,110.2,13.37,12.54,7.1
"2010-04-06 00:45:30",551,7.129,44.56,1.173,0.143,11.42,104.8747,11.75,12.7,23.71,0,110.2,13.37,12.54,6.6
"2010-04-06 00:46:00",552,7.05,42.02,1.861,0.196,11.69,104.8747,11.75,12.71,23.81,0,110.2,13.38,12.54,4.0
"2010-04-06 00:46:30",553,7.49,42.58,5.397,1.053,13.38,104.8747,11.75,12.92,24.04,0,110.2,13.34,12.54,4.6
"2010-04-06 00:47:00",554,9.01,48.99,6.63,1.195,15.3,104.8747,11.75,12.95,24.06,0,110.2,13.35,12.54,11.0
"2010-04-06 00:47:30",555,9.42,51.99,3.988,0.97,16.21,104.8747,11.75,13.04,24.1,0,110.2,13.35,12.54,14.0
"2010-04-06 00:48:00",556,9.15,50.84,6.07,1.17,15.21,104.8708,11.74,12.95,24.01,0,110.2,13.35,12.53,12.8
"2010-04-06 00:48:30",557,7.329,40.18,4.209,0.785,11.36,104.8584,11.71,12.71,23.8,0,110.2,13.35,12.50,2.2
"2010-04-06 00:49:00",558,6.442,37.18,2.634,0.393,11.01,104.8415,11.67,12.7,23.84,0,110.2,13.38,12.46,359.2
"2010-04-06 00:49:30",559,5.36,32.57,2.578,0.914,11.34,104.8409,11.67,12.69,23.97,0,110.2,13.38,12.46,354.6
"2010-04-06 00:50:00",560,5.264,33.58,6.405,1.248,13.05,104.8409,11.67,12.68,23.97,0,110.2,13.35,12.46,355.6
"2010-04-06 00:50:30",561,5.001,32.09,7.55,1.485,13.2,104.8409,11.67,12.87,24.31,0,110.2,13.35,12.46,354.1
"2010-04-06 00:51:00",562,5.409,34.52,6.704,1.327,13.99,104.8352,11.65,12.84,24.45,0,110.2,13.35,12.44,356.5
"2010-04-06 00:51:30",563,6.198,39.06,5.103,1.009,15.91,104.8158,11.6,12.97,24.52,0,110.2,13.35,12.39,1.1
"2010-04-06 00:52:00",564,5.952,36.1,6.4,1.157,14.18,104.807,11.58,12.79,24.52,0,110.2,13.35,12.37,358.1
"2010-04-06 00:52:30",565,4.525,28.13,1.099,0.228,10.58,104.807,11.58,12.62,24.39,0,110.2,13.38,12.37,350.1
"2010-04-06 00:53:00",566,4.67,26.61,1.307,0.178,10.6,104.807,11.58,12.61,24.53,0,110.2,13.38,12.37,348.6
"2010-04-06 00:53:30",567,5.119,25.66,1.272,0.27,10.97,104.807,11.58,12.61,24.58,0,110.2,13.39,12.37,347.7
"2010-04-06 00:54:00",568,5.87,25.2,0.658,0.242,11.4,104.8056,11.57,12.68,24.78,0,110.2,13.39,12.37,347.2
"2010-04-06 00:54:30",569,7.275,31.41,6.395,1.335,14.21,104.8005,11.56,12.67,24.78,0,110.2,13.35,12.35,353.4
"2010-04-06 00:55:00",570,7.759,38.16,7.296,1.256,15.4,104.7907,11.54,12.85,24.7,0,110.2,13.35,12.33,0.2
"2010-04-06 00:55:30",571,8.58,43.81,3.428,0.719,16.3,104.7766,11.5,12.88,24.52,0,110.1,13.35,12.29,5.8
"2010-04-06 00:56:00",572,7.257,39.14,6.94,1.374,13.59,104.7732,11.49,12.85,24.4,0,110.2,13.35,12.28,1.1
"2010-04-06 00:56:30",573,6.665,37.31,1.182,0.377,10.79,104.7732,11.49,12.55,24.07,0,110.2,13.39,12.28,359.3
"2010-04-06 00:57:00",574,7.157,41.15,1.17,0.131,10.99,104.7732,11.49,12.56,23.98,0,110.2,13.39,12.28,3.2
"2010-04-06 00:57:30",575,7.445,41.68,0.821,0.221,11.6,104.7732,11.49,12.54,23.91,0,110.2,13.39,12.28,3.7
"2010-04-06 00:58:00",576,9.18,48.69,6.738,1.275,13.94,104.7732,11.49,12.59,24,0,110.2,13.35,12.28,10.7
"2010-04-06 00:58:30",577,9.41,48.95,7.065,1.333,14.82,104.7732,11.49,12.78,24.25,0,110.2,13.35,12.28,11.0
"2010-04-06 00:59:00",578,10.49,57.37,4.182,0.647,16.69,104.7732,11.49,12.85,24.29,0,110.2,13.35,12.28,19.4
"2010-04-06 00:59:30",579,10.47,59.58,3.566,0.721,16.54,104.7732,11.49,12.79,24.23,0,110.2,13.34,12.28,21.6
"2010-04-06 01:00:00",580,8.36,48.02,2.228,0.662,11.4,104.774,11.49,12.54,23.96,0,110.2,13.34,12.29,10.0
"2010-04-06 01:00:30",581,8.6,46.46,0.896,0.134,11.38,104.7879,11.53,12.54,23.93,0,110.2,13.38,12.32,8.5
"2010-04-06 01:01:00",582,8.82,45.89,0.552,0.111,11.83,104.8,11.56,12.55,23.86,0,110.2,13.38,12.35,7.9
"2010-04-06 01:01:30",583,10.03,51.79,7.235,1.348,14.53,104.8065,11.58,12.72,23.96,0,110.2,13.35,12.37,13.8
"2010-04-06 01:02:00",584,10.69,56.72,5.81,1.202,16.27,104.807,11.58,12.82,24.06,0,110.2,13.34,12.37,18.7
"2010-04-06 01:02:30",585,10.93,58.67,3.531,0.595,16.72,104.807,11.58,12.88,24.19,0,110.2,13.35,12.37,20.7
"2010-04-06 01:03:00",586,10.27,56.97,6.055,1.249,15.61,104.807,11.58,12.78,24.09,0,110.2,13.35,12.37,19.0
"2010-04-06 01:03:30",587,8.63,46.85,3.493,0.761,11.56,104.8073,11.58,12.6,23.97,0,110.2,13.35,12.37,8.8
"2010-04-06 01:04:00",588,8.07,40.71,0.898,0.114,11.28,104.8104,11.59,12.59,23.86,0,110.2,13.39,12.38,2.7
"2010-04-06 01:04:30",589,7.715,40.84,1.33,0.231,11.68,104.8141,11.6,12.59,23.79,0,110.2,13.39,12.39,2.8
"2010-04-06 01:05:00",590,8.24,41.46,6.581,1.114,13.37,104.811,11.59,12.71,23.86,0,110.2,13.35,12.38,3.5
"2010-04-06 01:05:30",591,8.89,46.47,6.379,1.384,15.47,104.8082,11.58,12.87,24.03,0,110.2,13.35,12.37,8.5
"2010-04-06 01:06:00",592,8.67,46.88,4.18,1.038,16.15,104.8073,11.58,12.81,23.87,0,110.2,13.35,12.37,8.9
"2010-04-06 01:06:30",593,7.587,40.93,6.432,1.318,14.88,104.807,11.58,12.85,23.89,0,110.2,13.35,12.37,2.9
"2010-04-06 01:07:00",594,6.841,35.2,6.607,1.264,12.73,104.807,11.58,12.6,23.64,0,110.2,13.35,12.37,357.2
"2010-04-06 01:07:30",595,6.128,25.25,1.83,0.192,11.06,104.8076,11.58,12.59,23.91,0,110.2,13.39,12.37,347.2
"2010-04-06 01:08:00",596,6.836,20.79,0.676,0.154,11.42,104.8073,11.58,12.59,24.29,0,110.2,13.39,12.37,342.8
"2010-04-06 01:08:30",597,7.646,24.95,6.255,1.167,13.65,104.8073,11.58,12.73,24.65,0,110.2,13.35,12.37,347.0
"2010-04-06 01:09:00",598,8.54,27.5,6.497,1.137,15.35,104.8029,11.57,12.77,24.71,0,110.2,13.35,12.36,349.5
"2010-04-06 01:09:30",599,8.11,26.3,6.849,1.394,14.88,104.8,11.56,12.83,24.82,0,110.2,13.35,12.35,348.3
"2010-04-06 01:10:00",600,8.21,27.78,6.227,1.138,15.01,104.7944,11.55,12.8,24.93,0,110.2,13.35,12.34,349.8
"2010-04-06 01:10:30",601,7.325,22.83,6.415,1.089,12.22,104.7911,11.54,12.69,25.27,0,110.2,13.35,12.33,344.8
"2010-04-06 01:11:00",602,6.347,18,0.891,0.312,10.81,104.7828,11.52,12.55,25.06,0,110.2,13.39,12.31,340.0
"2010-04-06 01:11:30",603,6.301,17.63,0.802,0.237,11.13,104.7785,11.51,12.54,24.88,0,110.2,13.39,12.30,339.6
"2010-04-06 01:12:00",604,6.375,18.8,4.505,0.903,12.3,104.7773,11.5,12.62,24.91,0,110.2,13.36,12.29,340.8
"2010-04-06 01:12:30",605,7.876,26.24,6.417,1.333,15.58,104.7803,11.51,12.76,25.04,0,110.2,13.36,12.30,348.2
"2010-04-06 01:13:00",606,8.21,26.12,6.671,1.351,14.83,104.7797,11.51,12.74,24.99,0,110.2,13.36,12.30,348.1
"2010-04-06 01:13:30",607,7.99,23.46,7.051,1.423,13.52,104.777,11.5,12.72,25.01,0,110.2,13.36,12.29,345.5
"2010-04-06 01:14:00",608,9.23,28.34,5.598,1.032,14.65,104.7788,11.51,12.7,25,0,110.2,13.35,12.30,350.3
"2010-04-06 01:14:30",609,7.353,20.23,1.651,0.571,11.18,104.7754,11.5,12.53,24.88,0,110.2,13.36,12.29,342.2
"2010-04-06 01:15:00",610,6.885,23.44,1.048,0.364,11.38,104.7676,11.48,12.51,24.74,0,110.2,13.39,12.27,345.4
"2010-04-06 01:15:30",611,7.798,29.23,6.233,1.511,13.72,104.7523,11.44,12.56,24.76,0,110.2,13.35,12.23,351.2
"2010-04-06 01:16:00",612,7.631,34.37,6.892,1.277,15.03,104.7452,11.42,12.67,24.76,0,110.2,13.35,12.21,356.4
"2010-04-06 01:16:30",613,7.658,36.12,6.735,1.486,15.5,104.747,11.42,12.71,24.63,0,110.2,13.35,12.22,358.1
"2010-04-06 01:17:00",614,6.92,29.02,6.47,1.214,13.01,104.7473,11.43,12.56,24.51,0,110.2,13.35,12.22,351.0
"2010-04-06 01:17:30",615,7.525,36.06,7.044,1.322,14.46,104.7491,11.43,12.68,24.98,0,110.2,13.35,12.22,358.1
"2010-04-06 01:18:00",616,6.643,31.19,5.177,1.021,12.05,104.7488,11.43,12.51,24.83,0,110.2,13.35,12.22,353.2
"2010-04-06 01:18:30",617,7.526,29.82,0.828,0.203,11.31,104.7486,11.43,12.44,24.94,0,110.2,13.39,12.22,351.8
"2010-04-06 01:19:00",618,7.712,35.64,5.725,1.08,12.19,104.7435,11.42,12.46,24.74,0,110.2,13.35,12.21,357.6
"2010-04-06 01:19:30",619,8.37,39.8,7.074,1.552,13.98,104.7402,11.41,12.67,24.76,0,110.2,13.35,12.20,1.8
"2010-04-06 01:20:00",620,9.22,44.83,6.963,1.519,15.4,104.7391,11.4,12.64,24.65,0,110.2,13.36,12.20,6.8
"2010-04-06 01:20:30",621,8.22,38.69,7.065,1.486,13.83,104.7379,11.4,12.57,24.78,0,110.2,13.36,12.19,0.7
"2010-04-06 01:21:00",622,8.14,39.74,7.232,1.451,14.05,104.7386,11.4,12.59,24.96,0,110.2,13.36,12.20,1.7
"2010-04-06 01:21:30",623,7.802,38.58,6.376,1.152,13.79,104.7381,11.4,12.55,25.04,0,110.2,13.36,12.19,0.6
"2010-04-06 01:22:00",624,7.039,33.65,1.356,0.574,11.44,104.734,11.39,12.41,25.02,0,110.2,13.39,12.18,355.6
"2010-04-06 01:22:30",625,7.837,34.8,1.151,0.477,11.7,104.7338,11.39,12.45,24.88,0,110.2,13.39,12.18,356.8
"2010-04-06 01:23:00",626,10.13,45.97,6.236,1.205,15.29,104.7337,11.39,12.65,25.01,0,110.2,13.36,12.18,8.0
"2010-04-06 01:23:30",627,10.44,46.02,5.933,1.304,15.48,104.7383,11.4,12.61,24.99,0,110.2,13.36,12.19,8.0
"2010-04-06 01:24:00",628,10.33,44.81,7.035,1.262,14.56,104.7426,11.41,12.62,25.08,0,110.2,13.36,12.21,6.8
"2010-04-06 01:24:30",629,10.27,45.66,7.204,1.243,14.7,104.7472,11.43,12.65,25.18,0,110.2,13.36,12.22,7.7
"2010-04-06 01:25:00",630,9.77,44.81,5.821,1.322,13.21,104.7488,11.43,12.43,24.86,0,110.2,13.36,12.22,6.8
"2010-04-06 01:25:30",631,8.72,40.54,0.923,0.164,11.61,104.7534,11.44,12.41,24.71,0,110.2,13.39,12.23,2.5
"2010-04-06 01:26:00",632,9.9,47.05,6.451,1.305,14.01,104.7591,11.46,12.53,24.76,0,110.2,13.36,12.25,9.0
"2010-04-06 01:26:30",633,9.16,43.51,4.847,0.989,13.44,104.7599,11.46,12.54,24.68,0,110.2,13.36,12.25,5.5
"2010-04-06 01:27:00",634,10,47.31,7.265,1.306,14.64,104.765,11.47,12.69,24.95,0,110.2,13.36,12.26,9.3
"2010-04-06 01:27:30",635,10.49,49.65,6.601,1.306,15.26,104.7648,11.47,12.67,24.92,0,110.2,13.36,12.26,11.7
"2010-04-06 01:28:00",636,10.43,48.2,6.332,1.356,14.25,104.7671,11.48,12.65,24.97,0,110.2,13.36,12.27,10.2
"2010-04-06 01:28:30",637,10.47,50.6,5.861,1.173,14.16,104.7671,11.48,12.52,24.5,0,110.2,13.36,12.27,12.6
"2010-04-06 01:29:00",638,10.15,49.59,5.102,1.415,13.5,104.7668,11.48,12.48,24.6,0,110.3,13.36,12.27,11.6
"2010-04-06 01:29:30",639,10.23,50.96,7.298,1.399,14.04,104.7692,11.48,12.55,24.63,0,110.2,13.36,12.27,13.0
"2010-04-06 01:30:00",640,10.36,50.9,7.216,1.421,14.07,104.772,11.49,12.49,24.58,0,110.2,13.36,12.28,12.9
"2010-04-06 01:30:30",641,10.68,53.57,6.727,1.256,14.82,104.7886,11.53,12.64,24.43,0,110.2,13.36,12.32,15.6
"2010-04-06 01:31:00",642,11.14,55.75,5.711,1,16.57,104.8001,11.56,12.77,24.67,0,110.2,13.35,12.35,17.8
"2010-04-06 01:31:30",643,10.96,53.77,5.63,1.13,15.41,104.8039,11.57,12.67,24.44,0,110.2,13.35,12.36,15.8
"2010-04-06 01:32:00",644,11.03,53.08,7.096,1.303,14.43,104.8042,11.57,12.55,24.36,0,110.2,13.35,12.36,15.1
"2010-04-06 01:32:30",645,9.73,48.65,5.985,1.232,13.21,104.8071,11.58,12.63,24.39,0,110.2,13.35,12.37,10.7
"2010-04-06 01:33:00",646,9.59,45.05,5.463,1.228,12.52,104.8272,11.63,12.51,24.23,0,110.2,13.35,12.42,7.0
"2010-04-06 01:33:30",647,9.12,42.5,5.116,0.983,12.57,104.8391,11.66,12.52,24.42,0,110.2,13.35,12.45,4.5
"2010-04-06 01:34:00",648,9.77,47.84,7.372,1.354,14.71,104.8407,11.66,12.72,24.59,0,110.2,13.35,12.46,9.8
"2010-04-06 01:34:30",649,10.07,50.16,5.797,1.305,16.2,104.8399,11.66,12.86,24.49,0,110.2,13.35,12.46,12.2
"2010-04-06 01:35:00",650,9.17,46.39,7.803,1.266,14.62,104.841,11.67,12.8,24.41,0,110.2,13.35,12.46,8.4
"2010-04-06 01:35:30",651,8.58,43.39,6.22,1.281,14.97,104.8399,11.66,12.76,24.79,0,110.2,13.35,12.46,5.4
"2010-04-06 01:36:00",652,7.541,37.68,4.54,1.003,11.85,104.8416,11.67,12.61,24.77,0,110.2,13.35,12.46,359.7
"2010-04-06 01:36:30",653,7.215,35.44,1.981,0.597,11.63,104.8422,11.67,12.58,24.63,0,110.2,13.39,12.46,357.4
"2010-04-06 01:37:00",654,7.326,36.16,1.412,0.367,11.92,104.8416,11.67,12.6,24.7,0,110.2,13.39,12.46,358.2
"2010-04-06 01:37:30",655,8.91,44.48,6.938,1.441,15.41,104.8413,11.67,12.85,25.04,0,110.2,13.36,12.46,6.5
"2010-04-06 01:38:00",656,8.9,49.11,6.802,1.339,15.49,104.8407,11.66,12.8,24.59,0,110.2,13.36,12.46,11.1
"2010-04-06 01:38:30",657,7.679,40.18,7.149,1.281,13.69,104.841,11.67,12.76,24.61,0,110.2,13.36,12.46,2.2
"2010-04-06 01:39:00",658,9.37,48.78,7.396,1.4,15.43,104.8396,11.66,12.83,24.65,0,110.2,13.36,12.45,10.8
"2010-04-06 01:39:30",659,7.512,42.76,7.662,1.121,12,104.8404,11.66,12.73,24.28,0,110.2,13.36,12.46,4.8
"2010-04-06 01:40:00",660,7.882,37.36,1.192,0.201,11.53,104.841,11.67,12.62,25.08,0,110.2,13.4,12.46,359.4
"2010-04-06 01:40:30",661,6.981,34.89,1.309,0.657,11.81,104.8416,11.67,12.68,25.61,0,110.2,13.4,12.46,356.9
"2010-04-06 01:41:00",662,8.78,43.59,7.142,1.384,15.43,104.841,11.67,12.81,25.61,0,110.2,13.36,12.46,5.6
"2010-04-06 01:41:30",663,8.72,45.49,7.229,1.4,15.93,104.8407,11.66,12.88,25.28,0,110.2,13.36,12.46,7.5
"2010-04-06 01:42:00",664,7.651,39.19,6.633,1.308,13.45,104.8413,11.67,12.75,25.29,0,110.2,13.36,12.46,1.2
"2010-04-06 01:42:30",665,9.33,47.36,7.319,1.301,14.85,104.8407,11.66,12.86,25.28,0,110.2,13.36,12.46,9.4
"2010-04-06 01:43:00",666,9.56,45.83,5.52,1.515,14.07,104.8405,11.66,12.77,24.98,0,110.2,13.36,12.46,7.8
"2010-04-06 01:43:30",667,7.113,35.15,5.318,1.493,10.68,104.8407,11.66,12.64,25.57,0,110.2,13.4,12.46,357.1
"2010-04-06 01:44:00",668,6.833,33.75,3.265,1,11.63,104.8413,11.67,12.64,25.77,0,110.2,13.4,12.46,355.8
"2010-04-06 01:44:30",669,6.656,38.38,9.17,1.718,13.95,104.8416,11.67,12.86,25.5,0,110.2,13.36,12.46,0.4
"2010-04-06 01:45:00",670,8.73,44.56,7.078,1.437,15.46,104.8413,11.67,12.81,25.56,0,110.2,13.36,12.46,6.6
"2010-04-06 01:45:30",671,8.76,45.05,8.12,1.383,15.19,104.8413,11.67,12.81,25.24,0,110.2,13.36,12.46,7.0
"2010-04-06 01:46:00",672,8.33,47.87,6.55,1.409,14.63,104.8387,11.66,12.87,25,0,110.2,13.36,12.45,9.9
"2010-04-06 01:46:30",673,9.07,48.32,8.75,1.181,13.44,104.8376,11.66,12.77,25.05,0,110.2,13.36,12.45,10.3
"2010-04-06 01:47:00",674,7.942,37.96,4.757,0.776,11.43,104.8349,11.65,12.6,25.14,0,110.2,13.4,12.44,360.0
"2010-04-06 01:47:30",675,6.511,34.76,2.217,0.799,11.85,104.8338,11.65,12.6,24.5,0,110.2,13.39,12.44,356.8
"2010-04-06 01:48:00",676,8.97,45.01,7.23,1.33,14.72,104.8326,11.64,12.82,24.65,0,110.2,13.36,12.44,7.0
"2010-04-06 01:48:30",677,9.94,42.81,7.373,1.322,16.06,104.8366,11.65,12.8,24.7,0,110.2,13.36,12.45,4.8
"2010-04-06 01:49:00",678,6.273,35.93,11.46,1.673,14.34,104.8402,11.66,12.87,24.95,0,110.2,13.36,12.46,357.9
"2010-04-06 01:49:30",679,6.95,43.19,5.721,1.134,15.53,104.8379,11.66,12.83,24.6,0,110.2,13.36,12.45,5.2
"2010-04-06 01:50:00",680,7.312,45.45,5.353,1.021,12.75,104.8413,11.67,12.71,24.38,0,110.2,13.35,12.46,7.5
"2010-04-06 01:50:30",681,6.498,43.5,3.006,0.216,11.38,104.8413,11.67,12.59,24.01,0,110.2,13.39,12.46,5.5
"2010-04-06 01:51:00",682,6.884,40.17,1.888,0.39,11.51,104.8425,11.67,12.6,24.13,0,110.2,13.39,12.46,2.2
"2010-04-06 01:51:30",683,6.605,38.07,7.79,0.768,11.9,104.8422,11.67,12.6,23.82,0,110.2,13.39,12.46,0.1
"2010-04-06 01:52:00",684,7.581,40.32,9.06,1.639,14.42,104.8422,11.67,12.74,24.8,0,110.2,13.36,12.46,2.3